TimeCST,TemperatureF,Dew PointF,Humidity,Sea Level PressureIn,VisibilityMPH,Wind Direction,Wind SpeedMPH,Gust SpeedMPH,PrecipitationIn,Events,Conditions,WindDirDegrees,DateUTC
12:15 AM,-2.2,-5.8,85,30.00,2.5,NNW,21.9,29.9,N/A,,Overcast,330,2013-02-19 06:15:00
12:35 AM,-2.2,-5.8,85,30.01,3.0,NW,25.3,-,N/A,,Overcast,320,2013-02-19 06:35:00
12:55 AM,-2.2,-7.6,78,30.02,4.0,NW,25.3,29.9,N/A,,Haze,320,2013-02-19 06:55:00
1:15 AM,-2.2,-7.6,78,30.03,3.0,NW,23.0,29.9,N/A,,Haze,320,2013-02-19 07:15:00
1:55 AM,-2.2,-7.6,78,30.03,2.5,NNW,20.7,31.1,N/A,,Haze,330,2013-02-19 07:55:00
2:15 AM,-4.0,-7.6,85,30.04,3.0,NNW,23.0,33.4,N/A,,Overcast,330,2013-02-19 08:15:00
2:35 AM,-4.0,-7.6,85,30.05,3.0,NNW,25.3,34.5,N/A,,Overcast,330,2013-02-19 08:35:00
2:55 AM,-4.0,-7.6,85,30.06,2.0,NW,25.3,31.1,N/A,,Haze,320,2013-02-19 08:55:00
3:15 AM,-4.0,-9.4,78,30.06,1.8,NW,28.8,35.7,N/A,,Haze,320,2013-02-19 09:15:00
3:35 AM,-5.8,-9.4,84,30.07,2.5,NW,25.3,34.5,N/A,,Overcast,320,2013-02-19 09:35:00
3:55 AM,-5.8,-9.4,84,30.07,1.8,NW,26.5,32.2,N/A,,Haze,320,2013-02-19 09:55:00
4:15 AM,-5.8,-11.2,77,30.08,2.0,NW,24.2,33.4,N/A,,Haze,320,2013-02-19 10:15:00
4:55 AM,-7.6,-13.0,77,30.09,1.0,NNW,24.2,29.9,N/A,Snow,Light Snow,330,2013-02-19 10:55:00
5:35 AM,-9.4,-14.8,77,30.11,2.0,NNW,18.4,25.3,N/A,,Haze,330,2013-02-19 11:35:00
5:55 AM,-9.4,-14.8,77,30.12,1.8,NW,23.0,27.6,N/A,,Haze,320,2013-02-19 11:55:00
6:15 AM,-9.4,-14.8,77,30.13,2.5,NW,25.3,31.1,N/A,,Haze,320,2013-02-19 12:15:00
6:35 AM,-9.4,-14.8,77,30.13,1.8,NW,26.5,33.4,N/A,,Haze,320,2013-02-19 12:35:00
6:55 AM,-9.4,-14.8,77,30.14,1.2,NNW,20.7,-,N/A,,Haze,330,2013-02-19 12:55:00
7:15 AM,-9.4,-14.8,77,30.15,1.5,NW,25.3,33.4,N/A,,Haze,320,2013-02-19 13:15:00
7:35 AM,-9.4,-14.8,77,30.16,1.5,NW,26.5,29.9,N/A,,Haze,320,2013-02-19 13:35:00
7:55 AM,-9.4,-14.8,77,30.17,1.5,NNW,25.3,29.9,N/A,,Haze,330,2013-02-19 13:55:00
8:15 AM,-9.4,-14.8,77,30.18,1.2,NNW,24.2,33.4,N/A,,Haze,330,2013-02-19 14:15:00
8:35 AM,-11.2,-16.6,77,30.19,1.0,NNW,19.6,26.5,N/A,,Haze,330,2013-02-19 14:35:00
8:55 AM,-9.4,-16.6,71,30.19,2.0,NNW,25.3,34.5,N/A,,Haze,330,2013-02-19 14:55:00
9:15 AM,-9.4,-16.6,71,30.21,1.5,NNW,19.6,26.5,N/A,,Haze,330,2013-02-19 15:15:00
9:35 AM,-9.4,-16.6,71,30.22,7.0,NNW,20.7,28.8,N/A,,Mostly Cloudy,330,2013-02-19 15:35:00
9:55 AM,-9.4,-16.6,71,30.23,4.0,NNW,23.0,29.9,N/A,,Haze,330,2013-02-19 15:55:00
10:35 AM,-9.4,-16.6,71,30.23,1.8,NNW,20.7,28.8,N/A,,Haze,330,2013-02-19 16:35:00
10:55 AM,-9.4,-14.8,77,30.24,1.2,NNW,20.7,27.6,N/A,,Haze,330,2013-02-19 16:55:00
11:15 AM,-9.4,-16.6,71,30.25,2.5,NNW,23.0,27.6,N/A,,Haze,330,2013-02-19 17:15:00
11:55 AM,-9.4,-16.6,71,30.27,1.2,NNW,20.7,26.5,N/A,,Haze,340,2013-02-19 17:55:00
12:15 PM,-9.4,-16.6,71,30.27,1.8,NW,24.2,28.8,N/A,,Haze,320,2013-02-19 18:15:00
12:35 PM,-9.4,-16.6,71,30.27,7.0,NNW,23.0,31.1,N/A,,Mostly Cloudy,330,2013-02-19 18:35:00
12:55 PM,-7.6,-14.8,71,30.27,4.0,NW,20.7,27.6,N/A,,Haze,320,2013-02-19 18:55:00
1:15 PM,-7.6,-16.6,65,30.28,10.0,NNW,17.3,27.6,N/A,,Scattered Clouds,330,2013-02-19 19:15:00
1:35 PM,-7.6,-14.8,71,30.28,10.0,NW,21.9,26.5,N/A,,Clear,320,2013-02-19 19:35:00
2:15 PM,-7.6,-14.8,71,30.28,3.0,NW,17.3,24.2,N/A,,Haze,320,2013-02-19 20:15:00
3:35 PM,-7.6,-14.8,71,30.30,10.0,NW,20.7,-,N/A,,Clear,320,2013-02-19 21:35:00
3:55 PM,-7.6,-14.8,71,30.31,10.0,NNW,15.0,-,N/A,,Clear,330,2013-02-19 21:55:00
4:15 PM,-7.6,-14.8,71,30.32,10.0,NW,19.6,-,N/A,,Clear,320,2013-02-19 22:15:00
4:55 PM,-7.6,-14.8,71,30.32,10.0,NW,16.1,21.9,N/A,,Clear,320,2013-02-19 22:55:00
5:15 PM,-7.6,-14.8,71,30.33,10.0,NW,16.1,-,N/A,,Clear,320,2013-02-19 23:15:00
5:35 PM,-9.4,-14.8,77,30.34,10.0,NW,16.1,-,N/A,,Clear,320,2013-02-19 23:35:00
6:35 PM,-9.4,-14.8,77,30.34,10.0,NNW,15.0,-,N/A,,Clear,330,2013-02-20 00:35:00
6:55 PM,-9.4,-16.6,71,30.35,10.0,NNW,15.0,-,N/A,,Clear,340,2013-02-20 00:55:00
7:15 PM,-9.4,-16.6,71,30.35,10.0,NNW,12.7,-,N/A,,Clear,340,2013-02-20 01:15:00
7:35 PM,-11.2,-16.6,77,30.34,10.0,North,11.5,-,N/A,,Clear,350,2013-02-20 01:35:00
7:55 PM,-13.0,-16.6,84,30.35,10.0,North,10.4,-,N/A,,Clear,350,2013-02-20 01:55:00
8:15 PM,-13.0,-18.4,77,30.34,10.0,North,5.8,-,N/A,,Clear,10,2013-02-20 02:15:00
8:35 PM,-13.0,-18.4,77,30.36,10.0,NW,5.8,-,N/A,,Clear,320,2013-02-20 02:35:00
8:55 PM,-14.8,-20.2,77,30.37,10.0,NW,8.1,-,N/A,,Clear,310,2013-02-20 02:55:00
9:15 PM,-14.8,-18.4,84,30.38,10.0,NW,8.1,-,N/A,,Clear,320,2013-02-20 03:15:00
9:55 PM,-16.6,-20.2,84,30.39,10.0,NW,10.4,-,N/A,,Clear,320,2013-02-20 03:55:00
10:15 PM,-16.6,-22.0,76,30.39,10.0,NNW,10.4,-,N/A,,Clear,330,2013-02-20 04:15:00
10:35 PM,-14.8,-20.2,77,30.39,10.0,North,6.9,-,N/A,,Clear,360,2013-02-20 04:35:00
10:55 PM,-14.8,-20.2,77,30.39,10.0,North,8.1,-,N/A,,Clear,350,2013-02-20 04:55:00
11:15 PM,-14.8,-20.2,77,30.40,10.0,NNW,4.6,-,N/A,,Clear,330,2013-02-20 05:15:00
11:35 PM,-16.6,-22.0,76,30.41,10.0,NW,5.8,-,N/A,,Clear,320,2013-02-20 05:35:00
11:55 PM,-16.6,-22.0,76,30.40,10.0,North,4.6,-,N/A,,Clear,10,2013-02-20 05:55:00